This is the latest recevied weather packets stored in our database for station/object WD5U-1. If no packets are shown the sender has not sent any weather packets the latest 10 day(s).
| Time | Temp. | Humidity | Pressure | Rain* | Wind** | Luminosity | Snow |
|---|---|---|---|---|---|---|---|
| 1777837342 | 25.56° C | 40% | 1019.7 hPa | 0 mm | - | - | - |
| 1777836864 | 25.56° C | 41% | 1020.1 hPa | 0 mm | - | - | - |
| 1777836256 | 25.56° C | 40% | 1020.1 hPa | 0 mm | - | - | - |
| 1777836145 | 25.56° C | 40% | 1020.3 hPa | 0 mm | - | - | - |
| 1777834697 | 26.11° C | 38% | 1020.4 hPa | 0 mm | - | - | - |
| 1777834343 | 26.11° C | 43% | 1020.5 hPa | 0 mm | - | - | - |
| 1777833503 | 26.11° C | 42% | 1020.5 hPa | 0 mm | - | - | - |
| 1777833261 | 25.56° C | 41% | 1020.7 hPa | 0 mm | - | - | - |
| 1777832544 | 26.11° C | 46% | 1020.7 hPa | 0 mm | - | - | - |
| 1777831704 | 25.56° C | 46% | 1021.1 hPa | 0 mm | - | - | - |
| 1777831480 | 25.56° C | 45% | 1021.1 hPa | 0 mm | - | - | - |
| 1777830497 | 25° C | 49% | 1021.4 hPa | 0 mm | - | - | - |
| 1777830264 | 25° C | 49% | 1021.4 hPa | 0 mm | - | - | - |
| 1777829899 | 25° C | 48% | 1021.7 hPa | 0 mm | - | - | - |
| 1777828819 | 25° C | 49% | 1021.7 hPa | 0 mm | - | - | - |
| 1777828708 | 25° C | 51% | 1021.8 hPa | 0 mm | - | - | - |
| 1777828482 | 25° C | 49% | 1021.9 hPa | 0 mm | - | - | - |
| 1777828099 | 24.44° C | 52% | 1022.1 hPa | 0 mm | - | - | - |
| 1777827976 | 24.44° C | 50% | 1022.1 hPa | 0 mm | - | - | - |
| 1777827743 | 24.44° C | 51% | 1022.1 hPa | 0 mm | - | - | - |
| 1777827379 | 24.44° C | 50% | 1022.1 hPa | 0 mm | - | - | - |
| 1777827258 | 24.44° C | 51% | 1022.2 hPa | 0 mm | - | - | - |
| 1777826539 | 23.89° C | 51% | 1022 hPa | 0 mm | - | - | - |
| 1777826336 | 23.89° C | 51% | 1022.3 hPa | 0 mm | - | - | - |
| 1777826184 | 23.89° C | 51% | 1022.2 hPa | 0 mm | - | - | - |
* Rain latest hour (hover to see other rain measurements)
** Current wind speed in m/s (hover to see current wind gust speed)